Starlink 31651

operational
NORAD ID: 59860 Int'l Des: 2024-098 Owner: SPXS Country: US Constellation: starlink
LEOCIRCULAR

Über Starlink 31651

Beschreibung wird geladen...

Live-Position

3D-Globus wird geladen...

Nächste Überflüge

Höhenverlauf

Altitude vs Time

uPlot chart will show altitude changes over time

Zweizeiliger Elementsatz

1 59860U 24098C 25257.52130532 .00000990 00000-0 45475-4 0 9990
2 59860 42.9986 192.8854 0001072 286.7031 73.3703 15.27579089 74908
Epoch: 14. Sept. 2025 • Age: 23 hours

Aktueller Status

Höhe 483.4 km
Geschwindigkeit 7.63 km/s
Subsatellitenpunkt -2.48°S, 153.71°W
Startdatum 24. Mai 2024
Alter 1.3 years
Typ internet

Technische Details

Klassifizierung Payload
Masse 730.00 kg
Trockenmasse 700.00 kg
Gesamtmasse 730.00 kg
Länge 0.30 m
Durchmesser 4.10 m
Spannweite 29.00 m
Form Box + pan
Hersteller SPXS
Bus-Typ Starlink V2M
Phasenstatus In Orbit
Besitzer/Staat SPXS/US

Große Konstellationen

Loading constellations...